Arctic Bay — 9HTD8 — position and weather

sailwx.info

Track history (hours):
 
Tides and Currents Weather Stations Pressure Air Temp Water Temp Dewpoint Dewpoint Depression Visibility Wind Speed Wind Dir Waves Ship Positions

Arctic Bay

Last reported at 2014-Oct-25 17:20 UTC. Time now 2014-Oct-25 17:37 UTC.
Position N 54°21' E 005°05'.

Length 182 m; draft 7.5 m.

Type: Ship. MMSI: 256396000.

Date/timePositionNaut miles runAvg speedWind from/ knotsBaromVisibWave heightAir tempDewpointWater temp
2014-Oct-25 17:20N 54°21' E 005°05'911.0
2014-Oct-25 16:30N 54°13' E 004°57'1110.7
2014-Oct-25 15:26N 54°03' E 004°46'910.5
2014-Oct-25 14:33N 53°56' E 004°37'14510.9
2014-Oct-25 01:19N 51°50' E 002°40'911.6
2014-Oct-25 00:32N 51°42' E 002°31'1211.7
2014-Oct-24 23:33N 51°33' E 002°19'1111.1
2014-Oct-24 22:34N 51°24' E 002°12'1111.0
2014-Oct-24 21:33N 51°14' E 002°04'1110.5
2014-Oct-24 20:34N 51°08' E 001°50'6 6.2
2014-Oct-24 19:34N 51°02' E 001°49'1111.4
2014-Oct-24 18:34N 51°03' E 002°07'8 8.2
2014-Oct-24 17:32N 51°03' E 002°20'1 0.7
2014-Oct-24 16:32N 51°03' E 002°21'0 0.0
2014-Oct-24 15:29N 51°03' E 002°21'0 0.0
2014-Oct-24 14:29N 51°03' E 002°21'0 0.0
2014-Oct-24 13:26N 51°03' E 002°21'0 0.0
2014-Oct-24 12:32N 51°03' E 002°21'0 0.0
2014-Oct-24 11:29N 51°03' E 002°21'0 0.0
2014-Oct-24 10:32N 51°03' E 002°21'0 0.0
2014-Oct-24 09:32N 51°03' E 002°21'0 0.0
2014-Oct-24 08:32N 51°03' E 002°21'0 0.0
2014-Oct-24 07:32N 51°03' E 002°21'0 0.0
2014-Oct-24 06:32N 51°03' E 002°21'0 0.0
2014-Oct-24 05:32N 51°03' E 002°21'0 0.0
2014-Oct-24 04:32N 51°03' E 002°21'0 0.0
2014-Oct-24 03:29N 51°03' E 002°21'0 0.0
2014-Oct-24 02:29N 51°03' E 002°21'0 0.0
2014-Oct-24 01:32N 51°03' E 002°21'0 0.0
2014-Oct-24 00:32N 51°03' E 002°21'0 0.0
2014-Oct-23 23:32N 51°03' E 002°21'0 0.0
2014-Oct-23 22:26N 51°03' E 002°21'0 0.0
2014-Oct-23 21:32N 51°03' E 002°21'0 0.0
2014-Oct-23 20:29N 51°03' E 002°21'0 0.0
2014-Oct-23 19:32N 51°03' E 002°21'0 0.0
2014-Oct-23 18:29N 51°03' E 002°21'0 0.0
2014-Oct-23 17:29N 51°03' E 002°21'0 0.0
2014-Oct-23 16:29N 51°03' E 002°21'0 0.0
2014-Oct-23 15:32N 51°03' E 002°21'0 0.0
2014-Oct-23 14:29N 51°03' E 002°21'0 0.0
2014-Oct-23 13:32N 51°03' E 002°21'0 0.0
2014-Oct-23 12:32N 51°03' E 002°21'0 0.0
2014-Oct-23 11:32N 51°03' E 002°21'0 0.0
2014-Oct-23 10:29N 51°03' E 002°21'0 0.0
2014-Oct-23 09:32N 51°03' E 002°21'0 0.0
2014-Oct-23 08:29N 51°03' E 002°21'0 0.0
2014-Oct-23 07:29N 51°03' E 002°21'0 0.0
2014-Oct-23 06:23N 51°03' E 002°21'0 0.0
2014-Oct-23 05:32N 51°03' E 002°21'0 0.0
2014-Oct-23 04:32N 51°03' E 002°21'0 0.0
2014-Oct-23 03:26N 51°03' E 002°21'0 0.0
2014-Oct-23 02:32N 51°03' E 002°21'0 0.0
2014-Oct-23 01:32N 51°03' E 002°21'0 0.0
2014-Oct-23 00:32N 51°03' E 002°21'0 0.0
2014-Oct-22 23:29N 51°03' E 002°21'0 0.0
2014-Oct-22 22:32N 51°03' E 002°21'0 0.0
2014-Oct-22 21:29N 51°03' E 002°21'0 0.0
2014-Oct-22 20:32N 51°03' E 002°21'0 0.0
2014-Oct-22 19:32N 51°03' E 002°21'0 0.0
2014-Oct-22 18:29N 51°03' E 002°21'0 0.0
2014-Oct-22 17:32N 51°03' E 002°21'0 0.0
2014-Oct-22 16:32N 51°03' E 002°21'0 0.0
2014-Oct-22 15:32N 51°03' E 002°21'0 0.0
2014-Oct-22 14:32N 51°03' E 002°21'1 0.7
2014-Oct-22 13:33N 51°03' E 002°21'2 2.2
2014-Oct-22 12:33N 51°04' E 002°17'1212.0
2014-Oct-22 11:33N 51°02' E 001°58'6 5.8
2014-Oct-22 10:31N 51°03' E 001°49'0 0.2
2014-Oct-22 09:31N 51°03' E 001°49'1 0.6
2014-Oct-22 08:28N 51°03' E 001°48'0 0.1
2014-Oct-22 06:31N 51°03' E 001°48'0 0.1
2014-Oct-22 05:33N 51°03' E 001°48'4 4.0
2014-Oct-22 04:34N 51°05' E 001°42'8 7.8
2014-Oct-22 03:33N 51°12' E 001°45'10 9.8
2014-Oct-22 02:33N 51°20' E 001°54'7 6.8
2014-Oct-22 01:33N 51°24' E 002°03'7 6.9
2014-Oct-22 00:33N 51°18' E 002°08'7 7.2
2014-Oct-21 23:34N 51°12' E 002°01'9 9.3
2014-Oct-21 22:33N 51°08' E 001°47'4 3.7
2014-Oct-21 21:33N 51°11' E 001°43'8 8.3
2014-Oct-21 20:33N 51°18' E 001°50'9 8.8
2014-Oct-21 19:33N 51°25' E 001°57'8 8.4
2014-Oct-21 18:34N 51°31' E 002°07'10 9.4
2014-Oct-21 17:33N 51°39' E 002°15'10 9.6
2014-Oct-21 16:33N 51°47' E 002°24'18 9.1
2014-Oct-21 14:33N 52°03' E 002°37'153 9.9
2014-Oct-20 23:07N 54°19' E 004°32'610.7
2014-Oct-20 22:32N 54°25' E 004°37'199 9.0
2014-Oct-20 00:33N 57°11' E 007°50'7 6.7
2014-Oct-19 23:33N 57°15' E 007°60'8 8.2
2014-Oct-19 22:33N 57°20' E 008°12'9 9.2
2014-Oct-19 21:33N 57°26' E 008°25'9 9.4
2014-Oct-19 20:33N 57°31' E 008°40'9 9.4
2014-Oct-19 19:33N 57°35' E 008°57'3210.2
2014-Oct-19 16:26N 57°46' E 009°52'1011.7
2014-Oct-19 15:33N 57°49' E 010°10'1111.2
2014-Oct-19 14:34N 57°48' E 010°31'10 9.8
2014-Oct-19 13:33N 57°46' E 010°49'8 7.9
2014-Oct-19 12:33N 57°40' E 010°39'0 0.2
2014-Oct-19 11:33N 57°41' E 010°39'0 0.0
2014-Oct-19 10:27N 57°41' E 010°39'0 0.0
2014-Oct-19 07:30N 57°41' E 010°39'0 0.0
2014-Oct-19 06:33N 57°41' E 010°39'0 0.0
2014-Oct-19 05:33N 57°41' E 010°39'3 3.1
2014-Oct-19 04:33N 57°39' E 010°44'1211.8
2014-Oct-19 03:33N 57°34' E 011°04'1212.3
2014-Oct-19 02:33N 57°28' E 011°24'1312.6
2014-Oct-19 01:33N 57°17' E 011°33'1512.5
2014-Oct-19 00:22N 57°03' E 011°42'1012.7
2014-Oct-18 23:33N 56°53' E 011°49'1211.9
2014-Oct-18 22:33N 56°41' E 011°50'11811.7
2014-Oct-18 12:27N 54°48' E 010°50'1010.1
2014-Oct-18 11:28N 54°38' E 010°54'2412.8
2014-Oct-18 09:33N 54°29' E 011°33'1313.3
2014-Oct-18 08:33N 54°26' E 011°55'8211.8
2014-Oct-18 01:33N 55°04' E 014°02'1212.2
2014-Oct-18 00:33N 55°13' E 014°16'1212.3
2014-Oct-17 23:33N 55°22' E 014°30'1212.1
2014-Oct-17 22:33N 55°29' E 014°47'1212.3
2014-Oct-17 21:33N 55°35' E 015°07'36111.7
2014-Oct-16 14:33N 59°38' E 023°26'1313.3
2014-Oct-16 13:33N 59°42' E 023°51'1412.8
2014-Oct-16 12:28N 59°46' E 024°18'1212.6
2014-Oct-16 11:33N 59°48' E 024°40'5612.5
2014-Oct-16 07:05N 60°01' E 026°29'712.3
2014-Oct-16 06:33N 60°01' E 026°42'  
Track history (hours):
 
Tides and Currents Weather Stations Pressure Air Temp Water Temp Dewpoint Dewpoint Depression Visibility Wind Speed Wind Dir Waves Ship Positions

Arctic Bay

Last reported at 2014-Oct-25 17:20 UTC. Time now 2014-Oct-25 17:37 UTC.
Position N 54°21' E 005°05'.

Length 182 m; draft 7.5 m.

Type: Ship. MMSI: 256396000.

Date/timePositionNaut miles runAvg speedWind from/ knotsBaromVisibWave heightAir tempDewpointWater temp
2014-Oct-25 17:20N 54°21' E 005°05'911.0
2014-Oct-25 16:30N 54°13' E 004°57'1110.7
2014-Oct-25 15:26N 54°03' E 004°46'910.5
2014-Oct-25 14:33N 53°56' E 004°37'14510.9
2014-Oct-25 01:19N 51°50' E 002°40'911.6
2014-Oct-25 00:32N 51°42' E 002°31'1211.7
2014-Oct-24 23:33N 51°33' E 002°19'1111.1
2014-Oct-24 22:34N 51°24' E 002°12'1111.0
2014-Oct-24 21:33N 51°14' E 002°04'1110.5
2014-Oct-24 20:34N 51°08' E 001°50'6 6.2
2014-Oct-24 19:34N 51°02' E 001°49'1111.4
2014-Oct-24 18:34N 51°03' E 002°07'8 8.2
2014-Oct-24 17:32N 51°03' E 002°20'1 0.7
2014-Oct-24 16:32N 51°03' E 002°21'0 0.0
2014-Oct-24 15:29N 51°03' E 002°21'0 0.0
2014-Oct-24 14:29N 51°03' E 002°21'0 0.0
2014-Oct-24 13:26N 51°03' E 002°21'0 0.0
2014-Oct-24 12:32N 51°03' E 002°21'0 0.0
2014-Oct-24 11:29N 51°03' E 002°21'0 0.0
2014-Oct-24 10:32N 51°03' E 002°21'0 0.0
2014-Oct-24 09:32N 51°03' E 002°21'0 0.0
2014-Oct-24 08:32N 51°03' E 002°21'0 0.0
2014-Oct-24 07:32N 51°03' E 002°21'0 0.0
2014-Oct-24 06:32N 51°03' E 002°21'0 0.0
2014-Oct-24 05:32N 51°03' E 002°21'0 0.0
2014-Oct-24 04:32N 51°03' E 002°21'0 0.0
2014-Oct-24 03:29N 51°03' E 002°21'0 0.0
2014-Oct-24 02:29N 51°03' E 002°21'0 0.0
2014-Oct-24 01:32N 51°03' E 002°21'0 0.0
2014-Oct-24 00:32N 51°03' E 002°21'0 0.0
2014-Oct-23 23:32N 51°03' E 002°21'0 0.0
2014-Oct-23 22:26N 51°03' E 002°21'0 0.0
2014-Oct-23 21:32N 51°03' E 002°21'0 0.0
2014-Oct-23 20:29N 51°03' E 002°21'0 0.0
2014-Oct-23 19:32N 51°03' E 002°21'0 0.0
2014-Oct-23 18:29N 51°03' E 002°21'0 0.0
2014-Oct-23 17:29N 51°03' E 002°21'0 0.0
2014-Oct-23 16:29N 51°03' E 002°21'0 0.0
2014-Oct-23 15:32N 51°03' E 002°21'0 0.0
2014-Oct-23 14:29N 51°03' E 002°21'0 0.0
2014-Oct-23 13:32N 51°03' E 002°21'0 0.0
2014-Oct-23 12:32N 51°03' E 002°21'0 0.0
2014-Oct-23 11:32N 51°03' E 002°21'0 0.0
2014-Oct-23 10:29N 51°03' E 002°21'0 0.0
2014-Oct-23 09:32N 51°03' E 002°21'0 0.0
2014-Oct-23 08:29N 51°03' E 002°21'0 0.0
2014-Oct-23 07:29N 51°03' E 002°21'0 0.0
2014-Oct-23 06:23N 51°03' E 002°21'0 0.0
2014-Oct-23 05:32N 51°03' E 002°21'0 0.0
2014-Oct-23 04:32N 51°03' E 002°21'0 0.0
2014-Oct-23 03:26N 51°03' E 002°21'0 0.0
2014-Oct-23 02:32N 51°03' E 002°21'0 0.0
2014-Oct-23 01:32N 51°03' E 002°21'0 0.0
2014-Oct-23 00:32N 51°03' E 002°21'0 0.0
2014-Oct-22 23:29N 51°03' E 002°21'0 0.0
2014-Oct-22 22:32N 51°03' E 002°21'0 0.0
2014-Oct-22 21:29N 51°03' E 002°21'0 0.0
2014-Oct-22 20:32N 51°03' E 002°21'0 0.0
2014-Oct-22 19:32N 51°03' E 002°21'0 0.0
2014-Oct-22 18:29N 51°03' E 002°21'0 0.0
2014-Oct-22 17:32N 51°03' E 002°21'0 0.0
2014-Oct-22 16:32N 51°03' E 002°21'0 0.0
2014-Oct-22 15:32N 51°03' E 002°21'0 0.0
2014-Oct-22 14:32N 51°03' E 002°21'1 0.7
2014-Oct-22 13:33N 51°03' E 002°21'2 2.2
2014-Oct-22 12:33N 51°04' E 002°17'1212.0
2014-Oct-22 11:33N 51°02' E 001°58'6 5.8
2014-Oct-22 10:31N 51°03' E 001°49'0 0.2
2014-Oct-22 09:31N 51°03' E 001°49'1 0.6
2014-Oct-22 08:28N 51°03' E 001°48'0 0.1
2014-Oct-22 06:31N 51°03' E 001°48'0 0.1
2014-Oct-22 05:33N 51°03' E 001°48'4 4.0
2014-Oct-22 04:34N 51°05' E 001°42'8 7.8
2014-Oct-22 03:33N 51°12' E 001°45'10 9.8
2014-Oct-22 02:33N 51°20' E 001°54'7 6.8
2014-Oct-22 01:33N 51°24' E 002°03'7 6.9
2014-Oct-22 00:33N 51°18' E 002°08'7 7.2
2014-Oct-21 23:34N 51°12' E 002°01'9 9.3
2014-Oct-21 22:33N 51°08' E 001°47'4 3.7
2014-Oct-21 21:33N 51°11' E 001°43'8 8.3
2014-Oct-21 20:33N 51°18' E 001°50'9 8.8
2014-Oct-21 19:33N 51°25' E 001°57'8 8.4
2014-Oct-21 18:34N 51°31' E 002°07'10 9.4
2014-Oct-21 17:33N 51°39' E 002°15'10 9.6
2014-Oct-21 16:33N 51°47' E 002°24'18 9.1
2014-Oct-21 14:33N 52°03' E 002°37'153 9.9
2014-Oct-20 23:07N 54°19' E 004°32'610.7
2014-Oct-20 22:32N 54°25' E 004°37'199 9.0
2014-Oct-20 00:33N 57°11' E 007°50'7 6.7
2014-Oct-19 23:33N 57°15' E 007°60'8 8.2
2014-Oct-19 22:33N 57°20' E 008°12'9 9.2
2014-Oct-19 21:33N 57°26' E 008°25'9 9.4
2014-Oct-19 20:33N 57°31' E 008°40'9 9.4
2014-Oct-19 19:33N 57°35' E 008°57'3210.2
2014-Oct-19 16:26N 57°46' E 009°52'1011.7
2014-Oct-19 15:33N 57°49' E 010°10'1111.2
2014-Oct-19 14:34N 57°48' E 010°31'10 9.8
2014-Oct-19 13:33N 57°46' E 010°49'8 7.9
2014-Oct-19 12:33N 57°40' E 010°39'0 0.2
2014-Oct-19 11:33N 57°41' E 010°39'0 0.0
2014-Oct-19 10:27N 57°41' E 010°39'0 0.0
2014-Oct-19 07:30N 57°41' E 010°39'0 0.0
2014-Oct-19 06:33N 57°41' E 010°39'0 0.0
2014-Oct-19 05:33N 57°41' E 010°39'3 3.1
2014-Oct-19 04:33N 57°39' E 010°44'1211.8
2014-Oct-19 03:33N 57°34' E 011°04'1212.3
2014-Oct-19 02:33N 57°28' E 011°24'1312.6
2014-Oct-19 01:33N 57°17' E 011°33'1512.5
2014-Oct-19 00:22N 57°03' E 011°42'1012.7
2014-Oct-18 23:33N 56°53' E 011°49'1211.9
2014-Oct-18 22:33N 56°41' E 011°50'11811.7
2014-Oct-18 12:27N 54°48' E 010°50'1010.1
2014-Oct-18 11:28N 54°38' E 010°54'2412.8
2014-Oct-18 09:33N 54°29' E 011°33'1313.3
2014-Oct-18 08:33N 54°26' E 011°55'8211.8
2014-Oct-18 01:33N 55°04' E 014°02'1212.2
2014-Oct-18 00:33N 55°13' E 014°16'1212.3
2014-Oct-17 23:33N 55°22' E 014°30'1212.1
2014-Oct-17 22:33N 55°29' E 014°47'1212.3
2014-Oct-17 21:33N 55°35' E 015°07'36111.7
2014-Oct-16 14:33N 59°38' E 023°26'1313.3
2014-Oct-16 13:33N 59°42' E 023°51'1412.8
2014-Oct-16 12:28N 59°46' E 024°18'1212.6
2014-Oct-16 11:33N 59°48' E 024°40'5612.5
2014-Oct-16 07:05N 60°01' E 026°29'712.3
2014-Oct-16 06:33N 60°01' E 026°42'  

Dump ship's entire track history